owner,sensor,date,latitude,longitude,vertical_datum,sea_water_temperature,qcFlag 
ENP,ioos.station.NOAA.NDBC:BDVF1:1,2019-01-01T00:00:00Z,25.4780,-80.9890,1.0,24.64,11111222 
ENP,ioos.station.NOAA.NDBC:BDVF1:1,2019-01-01T01:00:00Z,25.4780,-80.9890,1.0,24.62,11111222 
ENP,ioos.station.NOAA.NDBC:BDVF1:1,2019-01-01T02:00:00Z,25.4780,-80.9890,1.0,24.66,11111222 
ENP,ioos.station.NOAA.NDBC:BDVF1:1,2019-01-01T03:00:00Z,25.4780,-80.9890,1.0,24.67,11111222 
ENP,ioos.station.NOAA.NDBC:BDVF1:1,2019-01-01T04:00:00Z,25.4780,-80.9890,1.0,24.56,11111222 
ENP,ioos.station.NOAA.NDBC:BDVF1:1,2019-01-01T05:00:00Z,25.4780,-80.9890,1.0,24.4,11111222 
ENP,ioos.station.NOAA.NDBC:BDVF1:1,2019-01-01T06:00:00Z,25.4780,-80.9890,1.0,24.26,11111222 
ENP,ioos.station.NOAA.NDBC:BDVF1:1,2019-01-01T07:00:00Z,25.4780,-80.9890,1.0,24.17,11111222 
ENP,ioos.station.NOAA.NDBC:BDVF1:1,2019-01-01T08:00:00Z,25.4780,-80.9890,1.0,24.13,11111222 
ENP,ioos.station.NOAA.NDBC:BDVF1:1,2019-01-01T09:00:00Z,25.4780,-80.9890,1.0,24.12,11111222 
ENP,ioos.station.NOAA.NDBC:BDVF1:1,2019-01-01T10:00:00Z,25.4780,-80.9890,1.0,24.02,11111222 
ENP,ioos.station.NOAA.NDBC:BDVF1:1,2019-01-01T11:00:00Z,25.4780,-80.9890,1.0,24.0,11111222 
ENP,ioos.station.NOAA.NDBC:BDVF1:1,2019-01-01T12:00:00Z,25.4780,-80.9890,1.0,24.03,11111222 
ENP,ioos.station.NOAA.NDBC:BDVF1:1,2019-01-01T13:00:00Z,25.4780,-80.9890,1.0,24.03,11111222 
ENP,ioos.station.NOAA.NDBC:BDVF1:1,2019-01-01T14:00:00Z,25.4780,-80.9890,1.0,23.99,11111222 
ENP,ioos.station.NOAA.NDBC:BDVF1:1,2019-01-01T15:00:00Z,25.4780,-80.9890,1.0,23.87,11111222 
ENP,ioos.station.NOAA.NDBC:BDVF1:1,2019-01-01T16:00:00Z,25.4780,-80.9890,1.0,23.74,11111222 
ENP,ioos.station.NOAA.NDBC:BDVF1:1,2019-01-01T17:00:00Z,25.4780,-80.9890,1.0,23.82,11111222 
ENP,ioos.station.NOAA.NDBC:BDVF1:1,2019-01-01T18:00:00Z,25.4780,-80.9890,1.0,23.9,11111222 
ENP,ioos.station.NOAA.NDBC:BDVF1:1,2019-01-01T19:00:00Z,25.4780,-80.9890,1.0,24.04,11111222 
ENP,ioos.station.NOAA.NDBC:BDVF1:1,2019-01-01T20:00:00Z,25.4780,-80.9890,1.0,24.12,11111222 
ENP,ioos.station.NOAA.NDBC:BDVF1:1,2019-01-01T21:00:00Z,25.4780,-80.9890,1.0,24.13,11111222 
ENP,ioos.station.NOAA.NDBC:BDVF1:1,2019-01-01T22:00:00Z,25.4780,-80.9890,1.0,24.19,11111222 
ENP,ioos.station.NOAA.NDBC:BDVF1:1,2019-01-01T23:00:00Z,25.4780,-80.9890,1.0,24.29,11111222 
ENP,ioos.station.NOAA.NDBC:BDVF1:1,2019-01-02T00:00:00Z,25.4780,-80.9890,1.0,24.34,11111222 
ENP,ioos.station.NOAA.NDBC:BDVF1:1,2019-01-02T01:00:00Z,25.4780,-80.9890,1.0,24.36,11111222 
ENP,ioos.station.NOAA.NDBC:BDVF1:1,2019-01-02T02:00:00Z,25.4780,-80.9890,1.0,24.38,11111222 
ENP,ioos.station.NOAA.NDBC:BDVF1:1,2019-01-02T03:00:00Z,25.4780,-80.9890,1.0,24.4,11111222 
ENP,ioos.station.NOAA.NDBC:BDVF1:1,2019-01-02T04:00:00Z,25.4780,-80.9890,1.0,24.43,11111222 
ENP,ioos.station.NOAA.NDBC:BDVF1:1,2019-01-02T05:00:00Z,25.4780,-80.9890,1.0,24.4,11111222 
ENP,ioos.station.NOAA.NDBC:BDVF1:1,2019-01-02T06:00:00Z,25.4780,-80.9890,1.0,24.39,11111222 
ENP,ioos.station.NOAA.NDBC:BDVF1:1,2019-01-02T07:00:00Z,25.4780,-80.9890,1.0,24.28,11111222 
ENP,ioos.station.NOAA.NDBC:BDVF1:1,2019-01-02T08:00:00Z,25.4780,-80.9890,1.0,24.21,11111222 
ENP,ioos.station.NOAA.NDBC:BDVF1:1,2019-01-02T09:00:00Z,25.4780,-80.9890,1.0,24.18,11111222 
ENP,ioos.station.NOAA.NDBC:BDVF1:1,2019-01-02T10:00:00Z,25.4780,-80.9890,1.0,24.21,11111222 
ENP,ioos.station.NOAA.NDBC:BDVF1:1,2019-01-02T11:00:00Z,25.4780,-80.9890,1.0,24.25,11111222 
ENP,ioos.station.NOAA.NDBC:BDVF1:1,2019-01-02T12:00:00Z,25.4780,-80.9890,1.0,24.22,11111222 
ENP,ioos.station.NOAA.NDBC:BDVF1:1,2019-01-02T13:00:00Z,25.4780,-80.9890,1.0,23.97,11111222 
ENP,ioos.station.NOAA.NDBC:BDVF1:1,2019-01-02T14:00:00Z,25.4780,-80.9890,1.0,23.84,11111222 
ENP,ioos.station.NOAA.NDBC:BDVF1:1,2019-01-02T15:00:00Z,25.4780,-80.9890,1.0,23.64,11111222 
ENP,ioos.station.NOAA.NDBC:BDVF1:1,2019-01-02T16:00:00Z,25.4780,-80.9890,1.0,23.63,11111222 
ENP,ioos.station.NOAA.NDBC:BDVF1:1,2019-01-02T17:00:00Z,25.4780,-80.9890,1.0,23.78,11111222 
ENP,ioos.station.NOAA.NDBC:BDVF1:1,2019-01-02T18:00:00Z,25.4780,-80.9890,1.0,24.09,11111222 
ENP,ioos.station.NOAA.NDBC:BDVF1:1,2019-01-02T19:00:00Z,25.4780,-80.9890,1.0,24.3,11111222 
ENP,ioos.station.NOAA.NDBC:BDVF1:1,2019-01-02T20:00:00Z,25.4780,-80.9890,1.0,24.35,11111222 
ENP,ioos.station.NOAA.NDBC:BDVF1:1,2019-01-02T21:00:00Z,25.4780,-80.9890,1.0,24.4,11111222 
ENP,ioos.station.NOAA.NDBC:BDVF1:1,2019-01-02T22:00:00Z,25.4780,-80.9890,1.0,24.46,11111222 
ENP,ioos.station.NOAA.NDBC:BDVF1:1,2019-01-02T23:00:00Z,25.4780,-80.9890,1.0,24.49,11111222 
ENP,ioos.station.NOAA.NDBC:BDVF1:1,2019-01-03T00:00:00Z,25.4780,-80.9890,1.0,24.49,11111222 
ENP,ioos.station.NOAA.NDBC:BDVF1:1,2019-01-03T01:00:00Z,25.4780,-80.9890,1.0,24.49,11111222 
ENP,ioos.station.NOAA.NDBC:BDVF1:1,2019-01-03T02:00:00Z,25.4780,-80.9890,1.0,24.41,11111222 
ENP,ioos.station.NOAA.NDBC:BDVF1:1,2019-01-03T03:00:00Z,25.4780,-80.9890,1.0,24.37,11111222 
ENP,ioos.station.NOAA.NDBC:BDVF1:1,2019-01-03T04:00:00Z,25.4780,-80.9890,1.0,24.35,11111222 
ENP,ioos.station.NOAA.NDBC:BDVF1:1,2019-01-03T05:00:00Z,25.4780,-80.9890,1.0,24.3,11111222 
ENP,ioos.station.NOAA.NDBC:BDVF1:1,2019-01-03T06:00:00Z,25.4780,-80.9890,1.0,24.22,11111222 
ENP,ioos.station.NOAA.NDBC:BDVF1:1,2019-01-03T07:00:00Z,25.4780,-80.9890,1.0,24.08,11111222 
ENP,ioos.station.NOAA.NDBC:BDVF1:1,2019-01-03T08:00:00Z,25.4780,-80.9890,1.0,23.99,11111222 
ENP,ioos.station.NOAA.NDBC:BDVF1:1,2019-01-03T09:00:00Z,25.4780,-80.9890,1.0,23.94,11111222 
ENP,ioos.station.NOAA.NDBC:BDVF1:1,2019-01-03T10:00:00Z,25.4780,-80.9890,1.0,23.92,11111222 
ENP,ioos.station.NOAA.NDBC:BDVF1:1,2019-01-03T11:00:00Z,25.4780,-80.9890,1.0,23.89,11111222 
ENP,ioos.station.NOAA.NDBC:BDVF1:1,2019-01-03T12:00:00Z,25.4780,-80.9890,1.0,23.86,11111222 
ENP,ioos.station.NOAA.NDBC:BDVF1:1,2019-01-03T13:00:00Z,25.4780,-80.9890,1.0,23.78,11111222 
ENP,ioos.station.NOAA.NDBC:BDVF1:1,2019-01-03T14:00:00Z,25.4780,-80.9890,1.0,23.69,11111222 
ENP,ioos.station.NOAA.NDBC:BDVF1:1,2019-01-03T15:00:00Z,25.4780,-80.9890,1.0,23.69,11111222 
ENP,ioos.station.NOAA.NDBC:BDVF1:1,2019-01-03T16:00:00Z,25.4780,-80.9890,1.0,23.75,11111222 
ENP,ioos.station.NOAA.NDBC:BDVF1:1,2019-01-03T17:00:00Z,25.4780,-80.9890,1.0,23.91,11111222 
ENP,ioos.station.NOAA.NDBC:BDVF1:1,2019-01-03T18:00:00Z,25.4780,-80.9890,1.0,24.03,11111222 
ENP,ioos.station.NOAA.NDBC:BDVF1:1,2019-01-03T19:00:00Z,25.4780,-80.9890,1.0,24.1,11111222 
ENP,ioos.station.NOAA.NDBC:BDVF1:1,2019-01-03T20:00:00Z,25.4780,-80.9890,1.0,24.29,11111222 
ENP,ioos.station.NOAA.NDBC:BDVF1:1,2019-01-03T21:00:00Z,25.4780,-80.9890,1.0,24.73,11111222 
ENP,ioos.station.NOAA.NDBC:BDVF1:1,2019-01-03T22:00:00Z,25.4780,-80.9890,1.0,25.01,11111222 
ENP,ioos.station.NOAA.NDBC:BDVF1:1,2019-01-03T23:00:00Z,25.4780,-80.9890,1.0,24.86,11111222 
ENP,ioos.station.NOAA.NDBC:BDVF1:1,2019-01-04T00:00:00Z,25.4780,-80.9890,1.0,24.79,11111222 
ENP,ioos.station.NOAA.NDBC:BDVF1:1,2019-01-04T01:00:00Z,25.4780,-80.9890,1.0,24.73,11111222 
ENP,ioos.station.NOAA.NDBC:BDVF1:1,2019-01-04T02:00:00Z,25.4780,-80.9890,1.0,24.77,11111222 
ENP,ioos.station.NOAA.NDBC:BDVF1:1,2019-01-04T03:00:00Z,25.4780,-80.9890,1.0,24.74,11111222 
ENP,ioos.station.NOAA.NDBC:BDVF1:1,2019-01-04T04:00:00Z,25.4780,-80.9890,1.0,24.74,11111222 
ENP,ioos.station.NOAA.NDBC:BDVF1:1,2019-01-04T05:00:00Z,25.4780,-80.9890,1.0,24.8,11111222 
ENP,ioos.station.NOAA.NDBC:BDVF1:1,2019-01-04T06:00:00Z,25.4780,-80.9890,1.0,24.82,11111222 
ENP,ioos.station.NOAA.NDBC:BDVF1:1,2019-01-04T07:00:00Z,25.4780,-80.9890,1.0,24.76,11111222 
ENP,ioos.station.NOAA.NDBC:BDVF1:1,2019-01-04T08:00:00Z,25.4780,-80.9890,1.0,24.68,11111222 
ENP,ioos.station.NOAA.NDBC:BDVF1:1,2019-01-04T09:00:00Z,25.4780,-80.9890,1.0,24.63,11111222 
ENP,ioos.station.NOAA.NDBC:BDVF1:1,2019-01-04T10:00:00Z,25.4780,-80.9890,1.0,24.6,11111222 
ENP,ioos.station.NOAA.NDBC:BDVF1:1,2019-01-04T11:00:00Z,25.4780,-80.9890,1.0,24.57,11111222 
ENP,ioos.station.NOAA.NDBC:BDVF1:1,2019-01-04T12:00:00Z,25.4780,-80.9890,1.0,24.53,11111222 
ENP,ioos.station.NOAA.NDBC:BDVF1:1,2019-01-04T13:00:00Z,25.4780,-80.9890,1.0,24.45,11111222 
ENP,ioos.station.NOAA.NDBC:BDVF1:1,2019-01-04T14:00:00Z,25.4780,-80.9890,1.0,24.37,11111222 
ENP,ioos.station.NOAA.NDBC:BDVF1:1,2019-01-04T15:00:00Z,25.4780,-80.9890,1.0,24.34,11111222 
ENP,ioos.station.NOAA.NDBC:BDVF1:1,2019-01-04T16:00:00Z,25.4780,-80.9890,1.0,24.55,11111222 
ENP,ioos.station.NOAA.NDBC:BDVF1:1,2019-01-04T17:00:00Z,25.4780,-80.9890,1.0,24.64,11111222 
ENP,ioos.station.NOAA.NDBC:BDVF1:1,2019-01-04T18:00:00Z,25.4780,-80.9890,1.0,24.75,11111222 
ENP,ioos.station.NOAA.NDBC:BDVF1:1,2019-01-04T19:00:00Z,25.4780,-80.9890,1.0,25.01,11111222 
ENP,ioos.station.NOAA.NDBC:BDVF1:1,2019-01-04T20:00:00Z,25.4780,-80.9890,1.0,25.24,11111222 
ENP,ioos.station.NOAA.NDBC:BDVF1:1,2019-01-04T21:00:00Z,25.4780,-80.9890,1.0,25.36,11111222 
ENP,ioos.station.NOAA.NDBC:BDVF1:1,2019-01-04T22:00:00Z,25.4780,-80.9890,1.0,25.18,11111222 
ENP,ioos.station.NOAA.NDBC:BDVF1:1,2019-01-04T23:00:00Z,25.4780,-80.9890,1.0,25.05,11111222 
ENP,ioos.station.NOAA.NDBC:BDVF1:1,2019-01-05T00:00:00Z,25.4780,-80.9890,1.0,25.06,11111222 
ENP,ioos.station.NOAA.NDBC:BDVF1:1,2019-01-05T01:00:00Z,25.4780,-80.9890,1.0,25.12,11111222 
ENP,ioos.station.NOAA.NDBC:BDVF1:1,2019-01-05T02:00:00Z,25.4780,-80.9890,1.0,25.07,11111222 
ENP,ioos.station.NOAA.NDBC:BDVF1:1,2019-01-05T03:00:00Z,25.4780,-80.9890,1.0,25.03,11111222 
ENP,ioos.station.NOAA.NDBC:BDVF1:1,2019-01-05T04:00:00Z,25.4780,-80.9890,1.0,25.0,11111222 
ENP,ioos.station.NOAA.NDBC:BDVF1:1,2019-01-05T05:00:00Z,25.4780,-80.9890,1.0,25.0,11111222 
ENP,ioos.station.NOAA.NDBC:BDVF1:1,2019-01-05T06:00:00Z,25.4780,-80.9890,1.0,25.02,11111222 
ENP,ioos.station.NOAA.NDBC:BDVF1:1,2019-01-05T07:00:00Z,25.4780,-80.9890,1.0,24.97,11111222 
ENP,ioos.station.NOAA.NDBC:BDVF1:1,2019-01-05T08:00:00Z,25.4780,-80.9890,1.0,24.86,11111222 
ENP,ioos.station.NOAA.NDBC:BDVF1:1,2019-01-05T09:00:00Z,25.4780,-80.9890,1.0,24.78,11111222 
ENP,ioos.station.NOAA.NDBC:BDVF1:1,2019-01-05T11:00:00Z,25.4780,-80.9890,1.0,24.7,11111222 
ENP,ioos.station.NOAA.NDBC:BDVF1:1,2019-01-05T12:00:00Z,25.4780,-80.9890,1.0,24.64,11111222 
ENP,ioos.station.NOAA.NDBC:BDVF1:1,2019-01-05T13:00:00Z,25.4780,-80.9890,1.0,24.6,11111222 
ENP,ioos.station.NOAA.NDBC:BDVF1:1,2019-01-05T14:00:00Z,25.4780,-80.9890,1.0,24.54,11111222 
ENP,ioos.station.NOAA.NDBC:BDVF1:1,2019-01-05T15:00:00Z,25.4780,-80.9890,1.0,24.52,11111222 
ENP,ioos.station.NOAA.NDBC:BDVF1:1,2019-01-05T16:00:00Z,25.4780,-80.9890,1.0,24.51,11111222 
ENP,ioos.station.NOAA.NDBC:BDVF1:1,2019-01-05T17:00:00Z,25.4780,-80.9890,1.0,24.64,11111222 
ENP,ioos.station.NOAA.NDBC:BDVF1:1,2019-01-05T18:00:00Z,25.4780,-80.9890,1.0,24.7,11111222 
ENP,ioos.station.NOAA.NDBC:BDVF1:1,2019-01-05T19:00:00Z,25.4780,-80.9890,1.0,24.83,11111222 
ENP,ioos.station.NOAA.NDBC:BDVF1:1,2019-01-05T20:00:00Z,25.4780,-80.9890,1.0,24.99,11111222 
ENP,ioos.station.NOAA.NDBC:BDVF1:1,2019-01-05T21:00:00Z,25.4780,-80.9890,1.0,25.02,11111222 
ENP,ioos.station.NOAA.NDBC:BDVF1:1,2019-01-05T22:00:00Z,25.4780,-80.9890,1.0,25.0,11111222 
ENP,ioos.station.NOAA.NDBC:BDVF1:1,2019-01-05T23:00:00Z,25.4780,-80.9890,1.0,24.93,11111222 
ENP,ioos.station.NOAA.NDBC:BDVF1:1,2019-01-06T00:00:00Z,25.4780,-80.9890,1.0,24.86,11111222 
ENP,ioos.station.NOAA.NDBC:BDVF1:1,2019-01-06T01:00:00Z,25.4780,-80.9890,1.0,24.74,11111222 
ENP,ioos.station.NOAA.NDBC:BDVF1:1,2019-01-06T02:00:00Z,25.4780,-80.9890,1.0,24.6,11111222 
ENP,ioos.station.NOAA.NDBC:BDVF1:1,2019-01-06T03:00:00Z,25.4780,-80.9890,1.0,24.44,11111222 
ENP,ioos.station.NOAA.NDBC:BDVF1:1,2019-01-06T04:00:00Z,25.4780,-80.9890,1.0,24.29,11111222 
ENP,ioos.station.NOAA.NDBC:BDVF1:1,2019-01-06T05:00:00Z,25.4780,-80.9890,1.0,24.1,11111222 
ENP,ioos.station.NOAA.NDBC:BDVF1:1,2019-01-06T06:00:00Z,25.4780,-80.9890,1.0,23.97,11111222 
ENP,ioos.station.NOAA.NDBC:BDVF1:1,2019-01-06T07:00:00Z,25.4780,-80.9890,1.0,23.84,11111222 
ENP,ioos.station.NOAA.NDBC:BDVF1:1,2019-01-06T08:00:00Z,25.4780,-80.9890,1.0,23.7,11111222 
ENP,ioos.station.NOAA.NDBC:BDVF1:1,2019-01-06T09:00:00Z,25.4780,-80.9890,1.0,23.49,11111222 
ENP,ioos.station.NOAA.NDBC:BDVF1:1,2019-01-06T10:00:00Z,25.4780,-80.9890,1.0,23.32,11111222 
ENP,ioos.station.NOAA.NDBC:BDVF1:1,2019-01-06T11:00:00Z,25.4780,-80.9890,1.0,23.0,11111222 
ENP,ioos.station.NOAA.NDBC:BDVF1:1,2019-01-06T12:00:00Z,25.4780,-80.9890,1.0,22.95,11111222 
ENP,ioos.station.NOAA.NDBC:BDVF1:1,2019-01-06T13:00:00Z,25.4780,-80.9890,1.0,22.84,11111222 
ENP,ioos.station.NOAA.NDBC:BDVF1:1,2019-01-06T14:00:00Z,25.4780,-80.9890,1.0,22.68,11111222 
ENP,ioos.station.NOAA.NDBC:BDVF1:1,2019-01-06T15:00:00Z,25.4780,-80.9890,1.0,22.51,11111222 
ENP,ioos.station.NOAA.NDBC:BDVF1:1,2019-01-06T16:00:00Z,25.4780,-80.9890,1.0,22.41,11111222 
ENP,ioos.station.NOAA.NDBC:BDVF1:1,2019-01-06T17:00:00Z,25.4780,-80.9890,1.0,22.27,11111222 
ENP,ioos.station.NOAA.NDBC:BDVF1:1,2019-01-06T18:00:00Z,25.4780,-80.9890,1.0,22.24,11111222 
ENP,ioos.station.NOAA.NDBC:BDVF1:1,2019-01-06T19:00:00Z,25.4780,-80.9890,1.0,22.48,11111222 
ENP,ioos.station.NOAA.NDBC:BDVF1:1,2019-01-06T20:00:00Z,25.4780,-80.9890,1.0,22.64,11111222 
ENP,ioos.station.NOAA.NDBC:BDVF1:1,2019-01-06T21:00:00Z,25.4780,-80.9890,1.0,22.74,11111222 
ENP,ioos.station.NOAA.NDBC:BDVF1:1,2019-01-06T22:00:00Z,25.4780,-80.9890,1.0,22.85,11111222 
ENP,ioos.station.NOAA.NDBC:BDVF1:1,2019-01-06T23:00:00Z,25.4780,-80.9890,1.0,22.92,11111222 
ENP,ioos.station.NOAA.NDBC:BDVF1:1,2019-01-07T00:00:00Z,25.4780,-80.9890,1.0,22.93,11111222 
ENP,ioos.station.NOAA.NDBC:BDVF1:1,2019-01-07T01:00:00Z,25.4780,-80.9890,1.0,22.9,11111222 
ENP,ioos.station.NOAA.NDBC:BDVF1:1,2019-01-07T02:00:00Z,25.4780,-80.9890,1.0,22.89,11111222 
ENP,ioos.station.NOAA.NDBC:BDVF1:1,2019-01-07T03:00:00Z,25.4780,-80.9890,1.0,22.9,11111222 
ENP,ioos.station.NOAA.NDBC:BDVF1:1,2019-01-07T04:00:00Z,25.4780,-80.9890,1.0,22.81,11111222 
ENP,ioos.station.NOAA.NDBC:BDVF1:1,2019-01-07T05:00:00Z,25.4780,-80.9890,1.0,22.58,11111222 
ENP,ioos.station.NOAA.NDBC:BDVF1:1,2019-01-07T06:00:00Z,25.4780,-80.9890,1.0,22.23,11111222 
ENP,ioos.station.NOAA.NDBC:BDVF1:1,2019-01-07T07:00:00Z,25.4780,-80.9890,1.0,22.5,11111222 
ENP,ioos.station.NOAA.NDBC:BDVF1:1,2019-01-07T08:00:00Z,25.4780,-80.9890,1.0,22.7,11111222 
ENP,ioos.station.NOAA.NDBC:BDVF1:1,2019-01-07T09:00:00Z,25.4780,-80.9890,1.0,22.57,11111222 
ENP,ioos.station.NOAA.NDBC:BDVF1:1,2019-01-07T10:00:00Z,25.4780,-80.9890,1.0,22.49,11111222 
ENP,ioos.station.NOAA.NDBC:BDVF1:1,2019-01-07T11:00:00Z,25.4780,-80.9890,1.0,22.33,11111222 
ENP,ioos.station.NOAA.NDBC:BDVF1:1,2019-01-07T12:00:00Z,25.4780,-80.9890,1.0,22.16,11111222 
ENP,ioos.station.NOAA.NDBC:BDVF1:1,2019-01-07T13:00:00Z,25.4780,-80.9890,1.0,21.98,11111222 
ENP,ioos.station.NOAA.NDBC:BDVF1:1,2019-01-07T14:00:00Z,25.4780,-80.9890,1.0,21.76,11111222 
ENP,ioos.station.NOAA.NDBC:BDVF1:1,2019-01-07T15:00:00Z,25.4780,-80.9890,1.0,21.66,11111222 
ENP,ioos.station.NOAA.NDBC:BDVF1:1,2019-01-07T16:00:00Z,25.4780,-80.9890,1.0,21.67,11111222 
ENP,ioos.station.NOAA.NDBC:BDVF1:1,2019-01-07T17:00:00Z,25.4780,-80.9890,1.0,21.73,11111222 
ENP,ioos.station.NOAA.NDBC:BDVF1:1,2019-01-07T18:00:00Z,25.4780,-80.9890,1.0,21.9,11111222 
ENP,ioos.station.NOAA.NDBC:BDVF1:1,2019-01-07T19:00:00Z,25.4780,-80.9890,1.0,22.19,11111222 
ENP,ioos.station.NOAA.NDBC:BDVF1:1,2019-01-07T20:00:00Z,25.4780,-80.9890,1.0,22.48,11111222 
ENP,ioos.station.NOAA.NDBC:BDVF1:1,2019-01-07T21:00:00Z,25.4780,-80.9890,1.0,22.78,11111222 
ENP,ioos.station.NOAA.NDBC:BDVF1:1,2019-01-07T22:00:00Z,25.4780,-80.9890,1.0,22.92,11111222 
ENP,ioos.station.NOAA.NDBC:BDVF1:1,2019-01-07T23:00:00Z,25.4780,-80.9890,1.0,23.01,11111222 
ENP,ioos.station.NOAA.NDBC:BDVF1:1,2019-01-08T00:00:00Z,25.4780,-80.9890,1.0,23.05,11111222 
ENP,ioos.station.NOAA.NDBC:BDVF1:1,2019-01-08T01:00:00Z,25.4780,-80.9890,1.0,23.12,11111222 
ENP,ioos.station.NOAA.NDBC:BDVF1:1,2019-01-08T02:00:00Z,25.4780,-80.9890,1.0,23.13,11111222 
ENP,ioos.station.NOAA.NDBC:BDVF1:1,2019-01-08T03:00:00Z,25.4780,-80.9890,1.0,23.13,11111222 
ENP,ioos.station.NOAA.NDBC:BDVF1:1,2019-01-08T04:00:00Z,25.4780,-80.9890,1.0,23.07,11111222 
ENP,ioos.station.NOAA.NDBC:BDVF1:1,2019-01-08T05:00:00Z,25.4780,-80.9890,1.0,22.9,11111222 
ENP,ioos.station.NOAA.NDBC:BDVF1:1,2019-01-08T06:00:00Z,25.4780,-80.9890,1.0,22.7,11111222 
ENP,ioos.station.NOAA.NDBC:BDVF1:1,2019-01-08T07:00:00Z,25.4780,-80.9890,1.0,22.56,11111222 
ENP,ioos.station.NOAA.NDBC:BDVF1:1,2019-01-08T08:00:00Z,25.4780,-80.9890,1.0,22.61,11111222 
ENP,ioos.station.NOAA.NDBC:BDVF1:1,2019-01-08T09:00:00Z,25.4780,-80.9890,1.0,22.58,11111222 
ENP,ioos.station.NOAA.NDBC:BDVF1:1,2019-01-08T10:00:00Z,25.4780,-80.9890,1.0,22.49,11111222 
ENP,ioos.station.NOAA.NDBC:BDVF1:1,2019-01-08T11:00:00Z,25.4780,-80.9890,1.0,22.41,11111222 
ENP,ioos.station.NOAA.NDBC:BDVF1:1,2019-01-08T12:00:00Z,25.4780,-80.9890,1.0,22.29,11111222 
ENP,ioos.station.NOAA.NDBC:BDVF1:1,2019-01-08T13:00:00Z,25.4780,-80.9890,1.0,22.18,11111222 
ENP,ioos.station.NOAA.NDBC:BDVF1:1,2019-01-08T14:00:00Z,25.4780,-80.9890,1.0,22.15,11111222 
ENP,ioos.station.NOAA.NDBC:BDVF1:1,2019-01-08T15:00:00Z,25.4780,-80.9890,1.0,22.03,11111222 
ENP,ioos.station.NOAA.NDBC:BDVF1:1,2019-01-08T16:00:00Z,25.4780,-80.9890,1.0,21.97,11111222 
ENP,ioos.station.NOAA.NDBC:BDVF1:1,2019-01-08T17:00:00Z,25.4780,-80.9890,1.0,21.99,11111222 
ENP,ioos.station.NOAA.NDBC:BDVF1:1,2019-01-08T18:00:00Z,25.4780,-80.9890,1.0,22.18,11111222 
ENP,ioos.station.NOAA.NDBC:BDVF1:1,2019-01-08T19:00:00Z,25.4780,-80.9890,1.0,22.34,11111222 
ENP,ioos.station.NOAA.NDBC:BDVF1:1,2019-01-08T20:00:00Z,25.4780,-80.9890,1.0,22.47,11111222 
ENP,ioos.station.NOAA.NDBC:BDVF1:1,2019-01-08T21:00:00Z,25.4780,-80.9890,1.0,22.73,11111222 
ENP,ioos.station.NOAA.NDBC:BDVF1:1,2019-01-08T22:00:00Z,25.4780,-80.9890,1.0,23.4,11111222 
ENP,ioos.station.NOAA.NDBC:BDVF1:1,2019-01-08T23:00:00Z,25.4780,-80.9890,1.0,23.34,11111222 
ENP,ioos.station.NOAA.NDBC:BDVF1:1,2019-01-09T00:00:00Z,25.4780,-80.9890,1.0,23.26,11111222 
ENP,ioos.station.NOAA.NDBC:BDVF1:1,2019-01-09T01:00:00Z,25.4780,-80.9890,1.0,22.89,11111222 
ENP,ioos.station.NOAA.NDBC:BDVF1:1,2019-01-09T02:00:00Z,25.4780,-80.9890,1.0,22.73,11111222 
ENP,ioos.station.NOAA.NDBC:BDVF1:1,2019-01-09T03:00:00Z,25.4780,-80.9890,1.0,22.61,11111222 
ENP,ioos.station.NOAA.NDBC:BDVF1:1,2019-01-09T04:00:00Z,25.4780,-80.9890,1.0,22.44,11111222 
ENP,ioos.station.NOAA.NDBC:BDVF1:1,2019-01-09T05:00:00Z,25.4780,-80.9890,1.0,22.38,11111222 
ENP,ioos.station.NOAA.NDBC:BDVF1:1,2019-01-09T06:00:00Z,25.4780,-80.9890,1.0,22.57,11111222 
ENP,ioos.station.NOAA.NDBC:BDVF1:1,2019-01-09T07:00:00Z,25.4780,-80.9890,1.0,22.47,11111222 
ENP,ioos.station.NOAA.NDBC:BDVF1:1,2019-01-09T08:00:00Z,25.4780,-80.9890,1.0,22.83,11111222 
ENP,ioos.station.NOAA.NDBC:BDVF1:1,2019-01-09T09:00:00Z,25.4780,-80.9890,1.0,22.98,11111222 
ENP,ioos.station.NOAA.NDBC:BDVF1:1,2019-01-09T10:00:00Z,25.4780,-80.9890,1.0,22.88,11111222 
ENP,ioos.station.NOAA.NDBC:BDVF1:1,2019-01-09T11:00:00Z,25.4780,-80.9890,1.0,22.72,11111222 
ENP,ioos.station.NOAA.NDBC:BDVF1:1,2019-01-09T12:00:00Z,25.4780,-80.9890,1.0,22.57,11111222 
ENP,ioos.station.NOAA.NDBC:BDVF1:1,2019-01-09T13:00:00Z,25.4780,-80.9890,1.0,22.51,11111222 
ENP,ioos.station.NOAA.NDBC:BDVF1:1,2019-01-09T14:00:00Z,25.4780,-80.9890,1.0,22.44,11111222 
ENP,ioos.station.NOAA.NDBC:BDVF1:1,2019-01-09T15:00:00Z,25.4780,-80.9890,1.0,22.4,11111222 
ENP,ioos.station.NOAA.NDBC:BDVF1:1,2019-01-09T16:00:00Z,25.4780,-80.9890,1.0,22.4,11111222 
ENP,ioos.station.NOAA.NDBC:BDVF1:1,2019-01-09T17:00:00Z,25.4780,-80.9890,1.0,22.49,11111222 
ENP,ioos.station.NOAA.NDBC:BDVF1:1,2019-01-09T18:00:00Z,25.4780,-80.9890,1.0,22.73,11111222 
ENP,ioos.station.NOAA.NDBC:BDVF1:1,2019-01-09T19:00:00Z,25.4780,-80.9890,1.0,23.02,11111222 
ENP,ioos.station.NOAA.NDBC:BDVF1:1,2019-01-09T20:00:00Z,25.4780,-80.9890,1.0,23.02,11111222 
ENP,ioos.station.NOAA.NDBC:BDVF1:1,2019-01-09T21:00:00Z,25.4780,-80.9890,1.0,23.31,11111222 
ENP,ioos.station.NOAA.NDBC:BDVF1:1,2019-01-09T22:00:00Z,25.4780,-80.9890,1.0,23.46,11111222 
ENP,ioos.station.NOAA.NDBC:BDVF1:1,2019-01-09T23:00:00Z,25.4780,-80.9890,1.0,23.42,11111222 
ENP,ioos.station.NOAA.NDBC:BDVF1:1,2019-01-10T00:00:00Z,25.4780,-80.9890,1.0,23.34,11111222 
ENP,ioos.station.NOAA.NDBC:BDVF1:1,2019-01-10T01:00:00Z,25.4780,-80.9890,1.0,23.3,11111222 
ENP,ioos.station.NOAA.NDBC:BDVF1:1,2019-01-10T02:00:00Z,25.4780,-80.9890,1.0,23.21,11111222 
ENP,ioos.station.NOAA.NDBC:BDVF1:1,2019-01-10T03:00:00Z,25.4780,-80.9890,1.0,23.1,11111222 
ENP,ioos.station.NOAA.NDBC:BDVF1:1,2019-01-10T04:00:00Z,25.4780,-80.9890,1.0,22.98,11111222 
ENP,ioos.station.NOAA.NDBC:BDVF1:1,2019-01-10T05:00:00Z,25.4780,-80.9890,1.0,22.8,11111222 
ENP,ioos.station.NOAA.NDBC:BDVF1:1,2019-01-10T06:00:00Z,25.4780,-80.9890,1.0,22.63,11111222 
ENP,ioos.station.NOAA.NDBC:BDVF1:1,2019-01-10T07:00:00Z,25.4780,-80.9890,1.0,22.41,11111222 
ENP,ioos.station.NOAA.NDBC:BDVF1:1,2019-01-10T08:00:00Z,25.4780,-80.9890,1.0,22.09,11111222 
ENP,ioos.station.NOAA.NDBC:BDVF1:1,2019-01-10T09:00:00Z,25.4780,-80.9890,1.0,21.89,11111222 
ENP,ioos.station.NOAA.NDBC:BDVF1:1,2019-01-10T10:00:00Z,25.4780,-80.9890,1.0,21.78,11111222 
ENP,ioos.station.NOAA.NDBC:BDVF1:1,2019-01-10T11:00:00Z,25.4780,-80.9890,1.0,21.61,11111222 
ENP,ioos.station.NOAA.NDBC:BDVF1:1,2019-01-10T12:00:00Z,25.4780,-80.9890,1.0,21.38,11111222 
ENP,ioos.station.NOAA.NDBC:BDVF1:1,2019-01-10T13:00:00Z,25.4780,-80.9890,1.0,21.16,11111222 
ENP,ioos.station.NOAA.NDBC:BDVF1:1,2019-01-10T14:00:00Z,25.4780,-80.9890,1.0,20.8,11111222 
ENP,ioos.station.NOAA.NDBC:BDVF1:1,2019-01-10T15:00:00Z,25.4780,-80.9890,1.0,20.55,11111222 
ENP,ioos.station.NOAA.NDBC:BDVF1:1,2019-01-10T16:00:00Z,25.4780,-80.9890,1.0,20.64,11111222 
ENP,ioos.station.NOAA.NDBC:BDVF1:1,2019-01-10T17:00:00Z,25.4780,-80.9890,1.0,20.74,11111222 
ENP,ioos.station.NOAA.NDBC:BDVF1:1,2019-01-10T18:00:00Z,25.4780,-80.9890,1.0,20.82,11111222 
ENP,ioos.station.NOAA.NDBC:BDVF1:1,2019-01-10T19:00:00Z,25.4780,-80.9890,1.0,20.92,11111222 
ENP,ioos.station.NOAA.NDBC:BDVF1:1,2019-01-10T20:00:00Z,25.4780,-80.9890,1.0,21.06,11111222 
ENP,ioos.station.NOAA.NDBC:BDVF1:1,2019-01-10T21:00:00Z,25.4780,-80.9890,1.0,21.19,11111222 
ENP,ioos.station.NOAA.NDBC:BDVF1:1,2019-01-10T22:00:00Z,25.4780,-80.9890,1.0,21.25,11111222 
ENP,ioos.station.NOAA.NDBC:BDVF1:1,2019-01-10T23:00:00Z,25.4780,-80.9890,1.0,21.29,11111222 
ENP,ioos.station.NOAA.NDBC:BDVF1:1,2019-01-11T00:00:00Z,25.4780,-80.9890,1.0,21.16,11111222 
ENP,ioos.station.NOAA.NDBC:BDVF1:1,2019-01-11T01:00:00Z,25.4780,-80.9890,1.0,20.99,11111222 
ENP,ioos.station.NOAA.NDBC:BDVF1:1,2019-01-11T02:00:00Z,25.4780,-80.9890,1.0,20.93,11111222 
ENP,ioos.station.NOAA.NDBC:BDVF1:1,2019-01-11T03:00:00Z,25.4780,-80.9890,1.0,20.81,11111222 
ENP,ioos.station.NOAA.NDBC:BDVF1:1,2019-01-11T04:00:00Z,25.4780,-80.9890,1.0,20.67,11111222 
ENP,ioos.station.NOAA.NDBC:BDVF1:1,2019-01-11T05:00:00Z,25.4780,-80.9890,1.0,20.5,11111222 
ENP,ioos.station.NOAA.NDBC:BDVF1:1,2019-01-11T06:00:00Z,25.4780,-80.9890,1.0,20.21,11111222 
ENP,ioos.station.NOAA.NDBC:BDVF1:1,2019-01-11T07:00:00Z,25.4780,-80.9890,1.0,19.91,11111222 
ENP,ioos.station.NOAA.NDBC:BDVF1:1,2019-01-11T08:00:00Z,25.4780,-80.9890,1.0,19.71,11111222 
ENP,ioos.station.NOAA.NDBC:BDVF1:1,2019-01-11T09:00:00Z,25.4780,-80.9890,1.0,19.61,11111222 
ENP,ioos.station.NOAA.NDBC:BDVF1:1,2019-01-11T10:00:00Z,25.4780,-80.9890,1.0,19.54,11111222 
ENP,ioos.station.NOAA.NDBC:BDVF1:1,2019-01-11T11:00:00Z,25.4780,-80.9890,1.0,19.44,11111222 
ENP,ioos.station.NOAA.NDBC:BDVF1:1,2019-01-11T12:00:00Z,25.4780,-80.9890,1.0,19.35,11111222 
ENP,ioos.station.NOAA.NDBC:BDVF1:1,2019-01-11T13:00:00Z,25.4780,-80.9890,1.0,19.24,11111222 
ENP,ioos.station.NOAA.NDBC:BDVF1:1,2019-01-11T14:00:00Z,25.4780,-80.9890,1.0,19.1,11111222 
ENP,ioos.station.NOAA.NDBC:BDVF1:1,2019-01-11T15:00:00Z,25.4780,-80.9890,1.0,18.89,11111222 
ENP,ioos.station.NOAA.NDBC:BDVF1:1,2019-01-11T16:00:00Z,25.4780,-80.9890,1.0,18.89,11111222 
ENP,ioos.station.NOAA.NDBC:BDVF1:1,2019-01-11T17:00:00Z,25.4780,-80.9890,1.0,18.97,11111222 